Powrót do katalogu

TITAN 3C TRANSTAGE DEB

AktywnyLEO
NORAD 1833·DEBRIS·🇺🇸 United States

Wystrzelony Oct 15, 1965 z Cape Canaveral Space Force Station

Loading…

Następne Przeloty (najbliższe 24 godziny)

TLE

ŚwieżeSource: Space-Track

Epoka: Sep 14, 2026, 10:59 UTC

1 01833U 65082DY  26257.45805927  .00001896  00000-0  26524-3 0  9994
2 01833  32.2285  26.0252 0058033 231.3129 128.2320 14.74664363183134

Śledź TITAN 3C TRANSTAGE DEB w czasie rzeczywistym z AllMySat

Download on the App Store